This demonstration page uses our WeatherBlox Daily Observations layout. Learn more.

38.80484, -77.04692

Hourly Observations for August 15, 2019

Temp ( °F °C ) Dew Point ( °F °C ) Humidity (%) Winds ( mph kmh ) Pressure ( in mb ) Visibility ( mi km ) Precip ( " mm )
12:52 am 00:52 Partly Cloudy with Light Rain 80 26.7 70 21.1 71 71 Calm 29.91 1013 10 16.09344 0 0
1:52 am 01:52 Mostly Cloudy 78 25.6 72 22.2 82 82 ENE 7 11 29.91 1013 10 16.09344 0 0
2:30 am 02:30 Mostly Cloudy 78 25.6 73 22.8 85 85 E 5 7 29.94 1014 10 16.09344 0 0
2:52 am 02:52 Partly Cloudy 78 25.6 73 22.8 85 85 E 6 9 29.91 1013 10 16.09344 0 0
3:52 am 03:52 Mostly Cloudy 77 25 72 22.2 85 85 NNE 5 7 29.88 1012 10 16.09344 0 0
4:08 am 04:08 Mostly Cloudy 77 25 72 22.2 85 85 NNE 5 7 29.91 1013 10 16.09344 0 0
4:52 am 04:52 Mostly Cloudy 77 25 73 22.8 88 88 ENE 9 15 29.88 1012 10 16.09344 0 0
4:59 am 04:59 Mostly Cloudy 77 25 73 22.8 88 88 ENE 10 17 29.91 1013 10 16.09344 0 0
5:52 am 05:52 Cloudy 76 24.4 72 22.2 88 88 E 8 13 29.91 1013 10 16.09344 0 0
6:26 am 06:26 Mostly Cloudy 76 24.4 71 21.7 85 85 ENE 8 13 29.94 1014 10 16.09344 0 0
6:52 am 06:52 Mostly Cloudy 76 24.4 70 21.1 82 82 ENE 8 13 29.94 1014 10 16.09344 0 0
7:08 am 07:08 Mostly Cloudy 76 24.4 71 21.7 85 85 ENE 7 11 29.94 1014 10 16.09344 0 0
7:47 am 07:47 Mostly Cloudy 75 24 72 22 89 89 ENE 6 9 29.97 1015 10 16.09344 0 0
7:52 am 07:52 Mostly Cloudy 76 24.4 70 21.1 82 82 E 6 9 29.94 1014 10 16.09344 0 0
8:52 am 08:52 Cloudy 78 25.6 70 21.1 76 76 ENE 6 9 29.97 1015 10 16.09344 0 0
9:52 am 09:52 Cloudy 79 26.1 70 21.1 74 74 E 9 15 29.97 1015 10 16.09344 0 0
10:09 am 10:09 Cloudy 79 26.1 70 21.1 74 74 ESE 8 13 30 1016 10 16.09344 0 0
10:52 am 10:52 Cloudy 80 26.7 70 21.1 71 71 NE 9 15 29.97 1015 10 16.09344 0 0
11:52 am 11:52 Cloudy 83 28.3 70 21.1 65 65 NNE 6 9 29.97 1015 10 16.09344 0 0
12:52 pm 12:52 Mostly Cloudy 85 29.4 68 20 57 57 ESE 7 11 29.94 1014 10 16.09344 0 0
1:52 pm 13:52 Mostly Cloudy 85 29.4 68 20 57 57 ESE 6 9 29.94 1014 10 16.09344 0 0
2:52 pm 14:52 Mostly Cloudy 85 29.4 68 20 57 57 SSE 9 15 29.91 1013 10 16.09344 0 0
3:52 pm 15:52 Mostly Cloudy 84 28.9 70 21.1 63 63 ESE 10 17 29.91 1013 10 16.09344 0 0
4:23 pm 16:23 Mostly Cloudy with Thunderstorms 83 28.3 69 20.6 63 63 E 12 19 29.94 1014 10 16.09344 0 0
4:52 pm 16:52 Cloudy with Thunderstorms 81 27.2 69 20.6 67 67 Calm 29.94 1014 3 4.828032 0.06 1.524
5:52 pm 17:52 Cloudy with Thunderstorms 77 25 73 22.8 88 88 SSE 8 13 29.94 1014 10 16.09344 0.14 3.556
6:14 pm 18:14 Mostly Cloudy 79 26.1 73 22.8 82 82 SSE 7 11 29.94 1014 10 16.09344 0 0
6:52 pm 18:52 Mostly Cloudy 79 26.1 72 22.2 79 79 ESE 6 9 29.91 1013 10 16.09344 0 0
7:52 pm 19:52 Partly Cloudy 79 26.1 72 22.2 79 79 E 3 6 29.91 1013 10 16.09344 0 0
8:52 pm 20:52 Cloudy 79 26.1 72 22.2 79 79 SE 9 15 29.91 1013 10 16.09344 0 0
9:29 pm 21:29 Cloudy 79 26.1 72 22.2 79 79 ENE 7 11 29.97 1015 10 16.09344 0.001 0.001
9:52 pm 21:52 Cloudy 79 26.1 72 22.2 79 79 SE 12 19 29.94 1014 10 16.09344 0.001 0.001
10:05 pm 22:05 Mostly Cloudy 79 26.1 72 22.2 79 79 SE 16 26 29.94 1014 10 16.09344 0 0
10:52 pm 22:52 Mostly Cloudy 77 25 72 22.2 85 85 ESE 7 11 29.97 1015 10 16.09344 0 0
11:12 pm 23:12 Mostly Cloudy 78 25.6 72 22.2 82 82 E 6 9 30 1016 10 16.09344 0 0
11:52 pm 23:52 Partly Cloudy 77 25 71 21.7 82 82 E 6 9 29.97 1015 10 16.09344 0 0

Powered by AerisWeather